When you browse on this site, cookies collect data to enhance your experience and personalize the content and advertising you see.
Visit our Privacy Policy to learn more. By continuing to use the site, you agree to this use of cookies and data.
  • In Portugal
  • List of Countries
  • For 7 days
  • Water Temperature
  • Satellite Maps
  • Weather Map
  • Weather Widgets
  • user-avatar
    Login

    Hourly Weather Salzburg

    Today, 13 December, Thursday

    Time Temperature Precipitation Wind Pressure Humidity
    00:00 -11°C° 0 mm 1 mps 622 mmHg 88%
    01:00 -11°C° 0 mm 1 mps 622 mmHg 88%
    02:00 -12°C° 0 mm 1 mps 621 mmHg 88%
    03:00 -12°C° 0 mm 1 mps 621 mmHg 88%
    04:00 -12°C° 0 mm 1 mps 620 mmHg 89%
    05:00 -13°C° 0 mm 1 mps 620 mmHg 89%
    06:00 -13°C° 0 mm 1 mps 620 mmHg 89%
    07:00 -15°C° 0 mm 2 mps 620 mmHg 89%
    08:00 -14°C° 0 mm 2 mps 620 mmHg 87%
    09:00 -13°C° 0 mm 2 mps 621 mmHg 85%
    10:00 -12°C° 0 mm 2 mps 621 mmHg 83%
    11:00 -10°C° 0 mm 2 mps 621 mmHg 81%
    12:00 -8°C° 0 mm 2 mps 621 mmHg 78%
    13:00 -7°C° 0 mm 2 mps 621 mmHg 76%
    14:00 -8°C° 0 mm 2 mps 621 mmHg 80%
    15:00 -9°C° 0 mm 2 mps 620 mmHg 84%
    16:00 -10°C° 0 mm 2 mps 620 mmHg 88%
    17:00 -12°C° 0 mm 2 mps 620 mmHg 88%
    18:00 -13°C° 0 mm 2 mps 619 mmHg 89%
    19:00 -14°C° 0 mm 2 mps 619 mmHg 89%
    20:00 -14°C° 0 mm 2 mps 619 mmHg 89%
    21:00 -14°C° 0 mm 2 mps 619 mmHg 88%
    22:00 -14°C° 0 mm 2 mps 620 mmHg 88%
    23:00 -12°C° 0 mm 1 mps 620 mmHg 88%

    Tomorrow, 14 December, Friday

    Time Temperature Precipitation Wind Pressure Humidity
    00:00 -12°C° 0 mm 1 mps 620 mmHg 87%
    01:00 -12°C° 0 mm 1 mps 620 mmHg 87%
    02:00 -12°C° 0 mm 1 mps 620 mmHg 87%
    03:00 -12°C° 0 mm 1 mps 620 mmHg 87%
    04:00 -13°C° 0 mm 1 mps 619 mmHg 87%
    05:00 -13°C° 0 mm 1 mps 620 mmHg 87%
    06:00 -13°C° 0 mm 1 mps 620 mmHg 86%
    07:00 -13°C° 0 mm 1 mps 620 mmHg 86%
    08:00 -11°C° 0 mm 1 mps 620 mmHg 85%
    09:00 -10°C° 0 mm 1 mps 621 mmHg 83%
    10:00 -9°C° 0 mm 1 mps 622 mmHg 82%
    11:00 -8°C° 0 mm 1 mps 622 mmHg 80%
    12:00 -7°C° 0 mm 1 mps 622 mmHg 78%
    13:00 -4°C° 0 mm 1 mps 622 mmHg 76%
    14:00 -7°C° 0 mm 1 mps 622 mmHg 81%
    15:00 -8°C° 0 mm 1 mps 622 mmHg 85%
    16:00 -9°C° 0 mm 1 mps 621 mmHg 90%
    17:00 -10°C° 0 mm 1 mps 621 mmHg 90%
    18:00 -11°C° 0 mm 1 mps 621 mmHg 90%
    19:00 -12°C° 0 mm 1 mps 621 mmHg 90%
    20:00 -12°C° 0 mm 1 mps 622 mmHg 88%
    21:00 -12°C° 0 mm 1 mps 622 mmHg 86%
    22:00 -12°C° 0 mm 1 mps 622 mmHg 84%
    23:00 -12°C° 0 mm 1 mps 622 mmHg 83%

    Day after tomorrow, 15 December, Saturday

    Time Temperature Precipitation Wind Pressure Humidity
    00:00 -12°C° 0 mm 1 mps 622 mmHg 81%
    01:00 -13°C° 0 mm 1 mps 622 mmHg 80%
    02:00 -13°C° 0 mm 1 mps 622 mmHg 79%
    03:00 -13°C° 0 mm 1 mps 622 mmHg 78%
    04:00 -13°C° 0 mm 1 mps 622 mmHg 77%
    05:00 -13°C° 0 mm 1 mps 623 mmHg 77%
    06:00 -13°C° 0 mm 1 mps 623 mmHg 77%
    07:00 -13°C° 0 mm 1 mps 623 mmHg 77%
    08:00 -12°C° 0 mm 1 mps 624 mmHg 77%
    09:00 -11°C° 0 mm 1 mps 624 mmHg 76%
    10:00 -9°C° 0 mm 1 mps 625 mmHg 75%
    11:00 -8°C° 0 mm 1 mps 625 mmHg 74%
    12:00 -7°C° 0 mm 1 mps 625 mmHg 73%
    13:00 -6°C° 0 mm 1 mps 625 mmHg 72%
    14:00 -8°C° 0 mm 1 mps 624 mmHg 77%
    15:00 -9°C° 0 mm 1 mps 624 mmHg 82%
    16:00 -10°C° 0 mm 1 mps 623 mmHg 87%
    17:00 -11°C° 0 mm 1 mps 623 mmHg 85%
    18:00 -11°C° 0 mm 1 mps 623 mmHg 84%
    19:00 -12°C° 0 mm 1 mps 623 mmHg 82%
    20:00 -12°C° 0 mm 1 mps 623 mmHg 79%
    21:00 -12°C° 0 mm 1 mps 623 mmHg 76%
    22:00 -12°C° 0 mm 1 mps 623 mmHg 73%
    23:00 -12°C° 0 mm 1 mps 622 mmHg 70%

    16 December, Sunday

    Time Temperature Precipitation Wind Pressure Humidity
    00:00 -12°C° 0 mm 1 mps 622 mmHg 67%
    01:00 -12°C° 0 mm 1 mps 622 mmHg 64%
    02:00 -12°C° 0 mm 1 mps 622 mmHg 63%
    03:00 -11°C° 0 mm 1 mps 621 mmHg 61%
    04:00 -11°C° 0 mm 1 mps 621 mmHg 60%
    05:00 -10°C° 0 mm 1 mps 621 mmHg 61%
    06:00 -9°C° 0 mm 1 mps 621 mmHg 62%
    07:00 -8°C° 0 mm 1 mps 621 mmHg 63%
    08:00 -7°C° 0.1 mm 1 mps 621 mmHg 67%
    09:00 -6°C° 0.1 mm 1 mps 622 mmHg 71%
    10:00 -4°C° 0.1 mm 1 mps 622 mmHg 74%
    11:00 -4°C° 0.6 mm 1 mps 621 mmHg 78%
    12:00 -3°C° 0.6 mm 1 mps 621 mmHg 82%
    13:00 -3°C° 0.6 mm 1 mps 621 mmHg 86%
    14:00 -3°C° 0.6 mm 1 mps 621 mmHg 88%
    15:00 -2°C° 0.6 mm 1 mps 621 mmHg 90%
    16:00 -2°C° 0.6 mm 1 mps 621 mmHg 93%
    17:00 -2°C° 0.4 mm 1 mps 622 mmHg 94%
    18:00 -2°C° 0.4 mm 1 mps 622 mmHg 94%
    19:00 -2°C° 0.4 mm 1 mps 622 mmHg 95%
    20:00 -2°C° 0.4 mm 1 mps 622 mmHg 95%
    21:00 -2°C° 0.4 mm 1 mps 622 mmHg 95%
    22:00 -2°C° 0.4 mm 1 mps 622 mmHg 96%
    23:00 -4°C° 0.4 mm 2 mps 622 mmHg 96%

    17 December, Monday

    Time Temperature Precipitation Wind Pressure Humidity
    00:00 -4°C° 0.4 mm 2 mps 623 mmHg 96%
    01:00 -4°C° 0.4 mm 2 mps 623 mmHg 96%
    02:00 -5°C° 0.1 mm 2 mps 623 mmHg 95%
    03:00 -6°C° 0.1 mm 2 mps 622 mmHg 95%
    04:00 -6°C° 0.1 mm 2 mps 622 mmHg 95%
    05:00 -7°C° 0 mm 2 mps 622 mmHg 94%
    06:00 -7°C° 0 mm 2 mps 622 mmHg 93%
    07:00 -8°C° 0 mm 2 mps 622 mmHg 93%
    08:00 -7°C° 0 mm 2 mps 623 mmHg 90%
    09:00 -7°C° 0 mm 2 mps 623 mmHg 87%
    10:00 -4°C° 0 mm 1 mps 624 mmHg 84%
    11:00 -3°C° 0.3 mm 1 mps 624 mmHg 85%
    12:00 -3°C° 0.3 mm 1 mps 624 mmHg 86%
    13:00 -2°C° 0.3 mm 1 mps 624 mmHg 87%
    14:00 -3°C° 0.1 mm 1 mps 624 mmHg 89%
    15:00 -3°C° 0.1 mm 1 mps 624 mmHg 90%
    16:00 -6°C° 0.1 mm 2 mps 624 mmHg 91%
    17:00 -6°C° 0 mm 2 mps 624 mmHg 90%
    18:00 -7°C° 0 mm 2 mps 625 mmHg 89%
    19:00 -8°C° 0 mm 2 mps 625 mmHg 88%
    20:00 -7°C° 0.1 mm 2 mps 625 mmHg 87%
    21:00 -7°C° 0.1 mm 2 mps 625 mmHg 86%
    22:00 -7°C° 0.1 mm 2 mps 626 mmHg 85%
    23:00 -7°C° 0.4 mm 2 mps 626 mmHg 86%

    18 December, Tuesday

    Time Temperature Precipitation Wind Pressure Humidity
    00:00 -7°C° 0.4 mm 2 mps 626 mmHg 88%
    01:00 -7°C° 0.4 mm 2 mps 626 mmHg 90%
    02:00 -7°C° 0.7 mm 2 mps 626 mmHg 91%
    03:00 -7°C° 0.7 mm 2 mps 627 mmHg 93%
    04:00 -7°C° 0.7 mm 2 mps 627 mmHg 94%
    05:00 -7°C° 0.5 mm 2 mps 627 mmHg 94%
    06:00 -7°C° 0.5 mm 2 mps 627 mmHg 94%
    07:00 -7°C° 0.5 mm 2 mps 627 mmHg 94%
    08:00 -7°C° 0.1 mm 2 mps 627 mmHg 93%
    09:00 -6°C° 0.1 mm 1 mps 628 mmHg 92%
    10:00 -6°C° 0.1 mm 1 mps 628 mmHg 91%
    11:00 -4°C° 0 mm 1 mps 627 mmHg 88%
    12:00 -3°C° 0 mm 1 mps 627 mmHg 85%
    13:00 -3°C° 0 mm 0 mps 627 mmHg 82%
    14:00 -4°C° 0 mm 0 mps 627 mmHg 84%
    15:00 -4°C° 0 mm 1 mps 626 mmHg 86%
    16:00 -6°C° 0 mm 1 mps 625 mmHg 88%
    17:00 -7°C° 0 mm 1 mps 625 mmHg 87%
    18:00 -8°C° 0 mm 1 mps 625 mmHg 85%
    19:00 -10°C° 0 mm 2 mps 624 mmHg 83%
    20:00 -10°C° 0 mm 2 mps 624 mmHg 82%
    21:00 -10°C° 0 mm 2 mps 624 mmHg 80%
    22:00 -10°C° 0 mm 2 mps 624 mmHg 78%
    23:00 -10°C° 0 mm 2 mps 623 mmHg 77%
    Show more